Holland, MI

4:18 AM EDT on May 25, 2017 (GMT -0400)
Tulip City

Weather History for KBIV - May, 2013

Change the Weather History Date:

Saturday, May 25, 2013

  Actual Average Record
Temperature  
Mean Temperature 53 °F 62 °F  
Max Temperature 66 °F 72 °F 89 °F (1977)
Min Temperature 39 °F 52 °F 34 °F (1988)
Degree Days  
Heating Degree Days 12 5  
Month to date heating degree days 129 205  
Since 1 July heating degree days 5932 6084  
Cooling Degree Days 0 2  
Month to date cooling degree days 52 24  
Year to date cooling degree days 58 28  
Growing Degree Days 2 (Base 50)    
Moisture  
Dew Point 38 °F    
Average Humidity 62    
Maximum Humidity 92    
Minimum Humidity 32    
Precipitation  
Precipitation 0.00 in 0.10 in 1.55 in (1989)
Month to date precipitation 1.57 2.67  
Year to date precipitation 17.41 12.08  
Sea Level Pressure  
Sea Level Pressure 30.34 in    
Wind  
Wind Speed 4 mph (NNW)    
Max Wind Speed 10 mph    
Max Gust Speed 16 mph    
Visibility 10 miles    
Events      
T = Trace of Precipitation, MM = Missing Value Source: NWS Daily Summary

Daily Weather History Graph

Daily Weather History Graph

Search for Another Location

Airport or City:

Trip Planner

Search our weather history database for the weather conditions in past years. The results will help you decide how hot, cold, wet, or windy it might be!

Date:

Astronomy

May. 25, 2013 Rise Set
Actual Time 6:12 AM EDT 9:10 PM EDT
Civil Twilight 5:39 AM EDT 9:44 PM EDT
Nautical Twilight 4:56 AM EDT 10:26 PM EDT
Astronomical Twilight 4:06 AM EDT 11:17 PM EDT
Moon 9:57 PM EDT 6:39 AM EDT
Length of Visible Light 16h 04m
Length of Day
14h 57m
Full, 100% of the Moon is Illuminated
May 25
Full
May 31
Last Quarter
Jun 8
New
Jun 16
First Quarter
Jun 23
Full

Hourly Weather History & Observations

Time (EDT) Temp. Windchill Dew Point Humidity Pressure Visibility Wind Dir Wind Speed Gust Speed Precip Events Conditions
12:53 AM 44.1 °F 42.5 °F 39.0 °F 82% 30.38 in 10.0 mi West 3.5 mph - N/A   Clear
1:53 AM 44.1 °F - 39.0 °F 82% 30.38 in 10.0 mi Calm Calm - N/A   Clear
2:53 AM 42.1 °F - 37.9 °F 85% 30.36 in 10.0 mi Calm Calm - N/A   Clear
3:53 AM 39.9 °F - 37.0 °F 89% 30.35 in 10.0 mi Calm Calm - N/A   Clear
4:53 AM 42.1 °F - 37.9 °F 85% 30.35 in 10.0 mi Calm Calm - N/A   Clear
5:53 AM 39.9 °F - 36.0 °F 86% 30.36 in 9.0 mi Calm Calm - N/A   Clear
6:53 AM 41.0 °F - 37.9 °F 89% 30.39 in 10.0 mi Calm Calm - N/A   Clear
7:53 AM 46.9 °F - 39.9 °F 77% 30.40 in 10.0 mi NNE 5.8 mph - N/A   Clear
8:53 AM 51.1 °F - 42.1 °F 71% 30.35 in 10.0 mi NE 4.6 mph - N/A   Clear
9:53 AM 55.0 °F - 41.0 °F 59% 30.36 in 10.0 mi NE 5.8 mph - N/A   Clear
10:53 AM 57.0 °F - 39.0 °F 51% 30.35 in 10.0 mi East 4.6 mph - N/A   Clear
11:53 AM 61.0 °F - 35.1 °F 38% 30.35 in 10.0 mi North 5.8 mph - N/A   Clear
12:53 PM 63.0 °F - 35.1 °F 35% 30.39 in 10.0 mi Variable 4.6 mph - N/A   Clear
1:53 PM 64.0 °F - 36.0 °F 35% 30.38 in 10.0 mi ESE 4.6 mph - N/A   Clear
2:53 PM 66.0 °F - 36.0 °F 33% 30.35 in 10.0 mi Variable 4.6 mph - N/A   Clear
3:53 PM 64.0 °F - 42.1 °F 45% 30.34 in 10.0 mi West 9.2 mph - N/A   Clear
4:53 PM 62.1 °F - 43.0 °F 50% 30.32 in 10.0 mi NW 6.9 mph - N/A   Clear
5:53 PM 61.0 °F - 39.9 °F 46% 30.27 in 10.0 mi WNW 8.1 mph - N/A   Clear
6:53 PM 59.0 °F - 37.0 °F 44% 30.33 in 10.0 mi NW 9.2 mph - N/A   Clear
7:53 PM 57.9 °F - 37.0 °F 46% 30.26 in 10.0 mi NW 5.8 mph - N/A   Clear
8:53 PM 55.9 °F - 37.0 °F 49% 30.30 in 10.0 mi NNW 3.5 mph - N/A   Clear
9:53 PM 55.0 °F - 37.0 °F 51% 30.32 in 10.0 mi Calm Calm - N/A   Clear
10:53 PM 48.9 °F - 41.0 °F 74% 30.27 in 10.0 mi Calm Calm - N/A   Clear
11:53 PM 48.9 °F - 41.0 °F 74% 30.32 in 10.0 mi Calm Calm - N/A   Clear